FW3145 Weather Reports


time (UTC)temp
C
wind
direction
speed
KPH
gust
KPH
rain 1hr
cm
rain 24hr
cm
rain mn
cm
humidity
%
barometer
mb
20260507234540 19 119 0.0 0.0 0.00 0.03 0.00 49 1008.2
20260507233032 19 149 0.0 0.0 0.00 0.03 0.00 56 1008.4
20260507231529 20 82 0.0 0.0 0.00 0.03 0.00 48 1008.4
20260507230028 20 71 0.0 0.0 0.00 0.03 0.00 47 1008.5
20260507224526 20 67 0.0 0.0 0.00 0.03 0.00 48 1008.7
20260507223025 20 43 0.0 0.0 0.00 0.03 0.00 52 1008.6
20260507221522 20 51 0.0 0.0 0.00 0.03 0.00 54 1008.6
20260507220019 20 55 0.0 0.0 0.00 0.03 0.00 57 1008.6
20260507214518 20 57 0.0 0.0 0.00 0.03 0.03 59 1008.6
20260507213019 20 84 0.0 0.0 0.00 0.03 0.03 59 1008.8
20260507211517 20 43 0.0 0.0 0.00 0.03 0.03 59 1008.9
20260507210016 20 50 0.0 0.0 0.00 0.03 0.03 60 1008.9
20260507204516 20 38 0.0 0.0 0.00 0.03 0.03 61 1009.1
20260507203015 20 19 0.0 0.0 0.00 0.03 0.03 60 1009.3
20260507201514 20 71 0.0 0.0 0.00 0.03 0.03 59 1009.4
20260507200014 20 31 0.0 0.0 0.00 0.03 0.03 60 1009.3
20260507194514 20 46 0.0 0.0 0.00 0.03 0.03 60 1009.3
20260507193017 21 17 0.0 0.0 0.00 0.03 0.03 59 1009.3
20260507191512 21 30 0.0 0.0 0.00 0.03 0.03 59 1009.1
20260507190012 21 46 0.0 0.0 0.00 0.03 0.03 59 1009.0
20260507184511 21 23 0.0 0.0 0.00 0.03 0.03 59 1008.8
20260507183013 21 16 0.0 0.0 0.00 0.03 0.03 59 1008.7
20260507181510 21 26 0.0 0.0 0.00 0.03 0.03 58 1008.9
20260507180014 21 20 0.0 0.0 0.00 0.03 0.03 58 1008.7
20260507174512 22 22 0.0 0.0 0.00 0.03 0.03 56 1008.6
20260507173009 22 5 0.0 0.0 0.00 0.03 0.03 57 1008.5
20260507171509 22 355 0.0 0.0 0.00 0.03 0.03 57 1008.5
20260507170007 23 29 0.0 0.0 0.00 0.03 0.03 56 1008.6
20260507164509 24 202 0.0 0.0 0.00 0.03 0.03 59 1008.6
20260507163006 24 202 0.0 0.0 0.00 0.03 0.03 53 1008.5
20260507161504 24 202 0.0 0.0 0.00 0.03 0.03 53 1008.6
20260507160004 25 201 0.0 0.0 0.00 0.03 0.03 49 1008.8
20260507154501 24 191 0.0 0.0 0.00 0.03 0.03 52 1008.9
20260507153001 25 178 0.0 0.0 0.00 0.03 0.03 49 1008.9
20260507151604 25 84 0.0 0.0 0.00 0.03 0.03 52 1009.0
20260507150058 25 199 0.0 0.0 0.00 0.03 0.03 47 1009.2
20260507144603 25 174 0.0 0.0 0.00 0.03 0.03 48 1009.2
20260507143109 25 169 0.0 0.0 0.00 0.03 0.03 46 1009.1
20260507141611 25 219 0.0 0.0 0.00 0.03 0.03 48 1009.4
20260507140054 25 140 0.0 0.0 0.00 0.03 0.03 49 1009.7
20260507134554 25 264 0.0 0.0 0.00 0.03 0.03 48 1009.7
20260507133050 25 240 0.0 0.0 0.00 0.03 0.03 47 1009.8
20260507131600 25 234 0.0 0.0 0.00 0.03 0.03 47 1009.9
20260507130047 25 234 0.0 0.0 0.00 0.03 0.03 46 1010.0
20260507124544 25 259 0.0 0.0 0.00 0.03 0.03 45 1010.4
20260507123057 25 254 0.0 0.0 0.00 0.03 0.03 47 1010.4
20260507121544 26 272 0.0 0.0 0.00 0.03 0.03 47 1010.6
20260507120040 26 188 0.0 0.0 0.00 0.03 0.03 46 1010.6
20260507114538 25 155 0.0 0.0 0.00 0.03 0.03 48 1010.7
20260507113036 24 155 0.0 0.0 0.00 0.03 0.03 49 1010.8
20260507111534 24 144 0.0 0.0 0.00 0.03 0.03 51 1011.0
20260507110033 24 113 0.0 0.0 0.00 0.03 0.03 51 1011.4
20260507104529 23 281 0.0 0.0 0.00 0.03 0.03 55 1011.5
20260507103027 23 207 0.0 0.0 0.00 0.03 0.03 55 1011.7
20260507101524 22 227 0.0 0.0 0.00 0.03 0.03 58 1011.7
20260507100027 23 137 0.0 0.0 0.00 0.03 0.03 60 1011.5
20260507094519 22 126 0.0 0.0 0.00 0.03 0.03 60 1011.6
20260507093018 21 161 0.0 0.0 0.00 0.03 0.03 63 1011.6
20260507091522 21 135 0.0 0.0 0.00 0.03 0.03 62 1011.7
20260507090016 22 152 0.0 0.0 0.00 0.03 0.03 61 1011.9
20260507084515 21 135 0.0 0.0 0.00 0.03 0.03 62 1011.9
20260507083009 20 148 0.0 0.0 0.00 0.03 0.03 64 1011.9
20260507081505 19 222 0.0 0.0 0.00 0.03 0.03 70 1012.1
20260507080001 18 206 0.0 0.0 0.00 0.03 0.03 73 1012.3
20260507074559 18 167 0.0 0.0 0.00 0.03 0.03 74 1012.2
20260507073057 18 168 0.0 0.0 0.00 0.03 0.03 74 1012.0
20260507071552 17 223 0.0 0.0 0.00 0.03 0.03 75 1012.0
20260507070101 17 163 0.0 0.0 0.00 0.03 0.03 76 1011.9
20260507064618 17 141 0.0 0.0 0.00 0.03 0.03 78 1011.8
20260507063043 16 104 0.0 0.0 0.00 0.03 0.03 80 1012.0
20260507061539 15 104 0.0 0.0 0.00 0.03 0.03 81 1012.2
20260507060041 14 17 0.0 0.0 0.00 0.03 0.03 82 1012.3
20260507054535 14 17 0.0 0.0 0.00 0.03 0.03 82 1012.3
20260507053037 14 53 0.0 0.0 0.00 0.03 0.03 82 1012.1
20260507051536 14 53 0.0 0.0 0.00 0.03 0.03 82 1012.0
20260507050040 13 88 0.0 0.0 0.00 0.03 0.03 82 1012.0
20260507044529 13 68 0.0 0.0 0.00 0.03 0.03 82 1012.0
20260507043025 13 59 0.0 0.0 0.00 0.03 0.03 82 1012.0
20260507041526 13 188 0.0 0.0 0.00 0.03 0.03 82 1011.7
20260507040021 13 250 0.0 0.0 0.00 0.03 0.03 81 1011.4
20260507034519 13 250 0.0 0.0 0.00 0.03 0.03 81 1011.1
20260507033021 14 324 0.0 0.0 0.00 0.03 0.03 79 1011.0
20260507031517 14 69 0.0 0.0 0.00 0.03 0.03 80 1011.2
20260507030025 13 32 0.0 0.0 0.00 0.03 0.03 81 1011.4
20260507024522 13 41 0.0 0.0 0.00 0.03 0.03 82 1011.8
20260507023014 13 348 0.0 0.0 0.00 0.03 0.03 82 1012.0
20260507021513 13 348 0.0 0.0 0.00 0.03 0.03 82 1012.0
20260507020014 13 348 0.0 0.0 0.00 0.03 0.03 82 1012.0
20260507014514 13 347 0.0 0.0 0.00 0.03 0.03 82 1012.2
20260507013014 13 348 0.0 0.0 0.03 0.03 0.03 82 1012.0
20260507011512 13 342 0.0 0.0 0.03 0.03 0.03 82 1011.7
20260507010012 14 342 0.0 0.0 0.03 0.03 0.03 81 1011.6
20260507004509 14 115 0.0 0.0 0.03 0.03 0.03 81 1011.6
20260507003009 14 109 0.0 0.0 0.00 0.00 0.00 80 1011.4
20260507001508 14 108 0.0 0.0 0.00 0.00 0.00 80 1011.6
20260507000004 14 22 0.0 0.0 0.00 0.00 0.00 80 1011.8